Race Results for
Central Coast Circuit Races
Fort Ord, CA
(Event Information)
Road Race on 07/02/2011

Note: Ranking points are NOT upgrade points. An explanation of ranking points can be found here.


Men - Cat4/5 - Master - 35-99

 Place Points NameCity, StateTime USAC #BibTeam
1361.61Morgan Raines   Santa Cruz, CA00:00.0 304464  416 
2377.48Christopher Brown   Monterey, CA00:00.0 254961  421 Don Chapin Montereay Bay Racin
3393.35Peter Tousignant   Belmont, CA00:00.0 231855  418 Third Pillar
4409.22Sean Brandt   Alameda, CA00:00.0 333136  420 Dolce Vita Cycling
5425.09Jason Schmidt   Los Gatos, CA00:00.0 231913  412 
6440.96Christopher Grove   Sacramento, CA00:00.0 332750  424 Body Concepts
7456.83AdamVanMinh Martin   Antioch, CA00:00.0 57185  425 Tri Valley Velo
8Abid HUSSAIN   00:00.0  413 
9488.57Daniel Burns   San Mateo, CA00:00.0 292461  422 Third Pillar
10504.44Zach Bass   San Francisco, CA00:00.0 292133  415 Mission Cycling
11520.31Jonathan Orban   Burlingame, CA00:00.0 240114  417 Third Pillar
12536.18John Barbicas   Sanfrancisco, CA00:00.0 309907  419 
13552.05Michael Charney   Millbrae, CA00:00.0 250113  414 Third Pillar
14567.92allan clark (1 - Cat5)   Salinas, CA00:00.0 303489  423 
DNSAdam Ward   Berkeley, CA00:00.0 297956  426 Berkeley Bicycle Club (BBC)

Men - Cat4/5 - Master - 45-99

 Place Points NameCity, StateTime USAC #BibTeam
1344.17Darren Yap   Sosanfrancisco, CA00:00.0 291364  274 Peninsula Velo/Pomodoro
2355.16John Gallagher   San Ramon, CA00:00.0 304284  286 Taleo Racing
3366.15Jeffrey Botelho   Sanramon, CA00:00.0 303912  284 Taleo Racing
4377.14John Brown   Santa Cruz, CA00:00.0 5094  282 Family Cycling Center
5388.13Matt Conidaris   Gold River, CA00:00.0 195944  289 Body Concepts
6399.12B Thomas Rice   Redwood City, CA00:00.0 260611  298 NA
7410.11Steven Thane   Belmont, CA00:00.0 286936  281 Peninsula Velo/Pomodoro
8421.10Chris Baker   Soquel, CA00:00.0 87996  283 Team Bicycle Trip/Symantec
9432.09Jeff Farnsworth   Los Gatos, CA00:00.0 11267  291 SJBC
10443.08Scott Hollander   Clovis, CA00:00.0 308269  288 Rubber Soul/CSC Racing Team
11454.07Ron Nelson   Martinez, CA00:00.0 257207  297 NA
12465.06darren ellenburg   Morgan Hill, CA00:00.0 309043  280 SJBC
13476.05Patrick Hampton   Cambria, CA00:00.0 218958  292 ArtsCyclery.com / Wild Horse W
14487.04Christopher Kolm   Moraga, CA00:00.0 254578  293 Taleo Racing
15498.03Donald Melosh   Palo Alto, CA00:00.0 279622  295 Peninsula Velo/ pomodoro
16509.02Rusty Stapp   Pleasanton, CA00:00.0 287480  299 Tri Valley Velo
17520.01Richard Asturias   Pleasanton, CA00:00.0 236210  285 Tri Valley Velo
18John SLTNEY   00:00.0  279 
19Steve ACHEY   00:00.0  287 
DNSGreg Eisner   Fresno, CA00:00.0 66048  290 CSC/Rubber Soul
DNSWilliam McBride   Santa Barbara, CA00:00.0 287300  294 Polli Veloce
DNSTodd Munk   Morgan Hill, CA00:00.0 296426  296 SJBC

Men - Cat3/4

 Place Points NameCity, StateTime USAC #BibTeam
1326.32Tobin Ortenblad   Santacruz, CA00:00.0 303586  191 
2338.12Matt Schaupp   Watsonville, CA00:00.0 311816  188 
3349.92Ethan Sopenski   Chardon Ohio00:00.0 329942  190 SJBC
4361.72nick baird   Sanger, CA00:00.0 309596  197 Sierra Pacific Racing
5373.52Branton Curt   Saratoga, CA00:00.0 218287  195 Los Gatos
6385.32Mackenzie Kelly   Santa Cruz, CA00:00.0 286297  187 
7397.12Stephen Shafer   Springville, CA00:00.0 318242  199 Youngs Comm. Trans./Yokohl Ran
8408.92Curtis Hong   Dublin, CA00:00.0 305875  194 SJBC
9420.72Matthew Valencia   Los Altos, CA00:00.0 255576  182 Team Specialized Racing Junior
10432.52Patrick Thomas   Aptos, CA00:00.0 294849  181 
11444.32Samuel Cerruti   Watsonville, CA00:00.0 233607  192 California Giant Berry Farms/S
DNPAri Baquet   Los Angeles, CA00:00.0 305718  183 
DNPRobbie Farrens   Stockton, CA00:00.0 289433  184 Rocket Sports Racing
DNPJonathan Christensen   Clements, CA00:00.0 250315  185 DJs Excavation
DNPBenjamin Binder   Lodi, CA00:00.0 306714  186 Michael David Winery Cycling T
DNPEliot Logan   Palo Alto, CA00:00.0 182819  189 Webcor/Alto Velo
DNPcody greer   Sanger, CA00:00.0 309590  193 Sierra Pacific Racing
DNPScott Moore   Santa Cruz, CA00:00.0 256976  196 
DNPSean Perry   Altadena, CA00:00.0 270704  198 University of Southern Califor

Men - Cat3/4 - Master - 35-99

 Place Points NameCity, StateTime USAC #BibTeam
1303.67Sean Tompkins   Morganhill, CA00:00.0 300546  618 SJBC
2309.62Chris Isley   El Granada, CA00:00.0 253814  615 Webcor/Alto Velo
3315.57Chad Rosser   San Jose, CA00:00.0 286506  656 SJBC
4321.52Kelly Higgins   San Jose, CA00:00.0 223520  650 Bay101 Racing
5327.47Robert White   Morgan Hill, CA00:00.0 97873  660 Bay101 Racing
6333.42Piet Vandervelde   Morgan Hill, CA00:00.0 333070  617 California Giant Cycling
7339.37Jodi Birrell   Morgan Hill, CA00:00.0 260006  646 Bay 101 Racing
8345.32Jeffrey Botelho   Sanramon, CA00:00.0 303912  621 Taleo Racing
9351.27Roger Martin   Danville, CA00:00.0 276924  653 Wells Fargo Racing Team
10357.22Roy Johnson   Livermore, CA00:00.0 61758  613 VSRT/Livermore Cyclery
11363.17Stefano Schiaffino   Pleasanton, CA00:00.0 257173  645 Christian Cycling-Hammer Nutri
12369.12Erik Salander   Belmont, CA00:00.0 195443  614 Peninsula Velo/Pomodoro
13375.07Santiago Bolon   San Jose, CA00:00.0 195384  647 Christian Cycling - Hammer Nut
14381.02Jonathan Sinclair   Hollister, CA00:00.0 113194  657 SJBC
15386.97Myong-Jae Kim   San Rafael, CA00:00.0 199345  652 Berkeley Bicycle Club (BBC)
16392.92Patrick Hampton   Cambria, CA00:00.0 218958  649 ArtsCyclery.com / Wild Horse W
17398.87James Regan   Santa Cruz, CA00:00.0 209455  612 
18404.82Michael Holt   Morgan Hill, CA00:00.0 75334  651 Bay101 Racing
19410.77Anthony Borba   Campbell, CA00:00.0 255377  620 Third Pillar
20416.72Jonathan Orban (1 - Cat4)   Burlingame, CA00:00.0 240114  644 Third Pillar
21422.67Chris Matthews   Redwood City, CA00:00.0 180294  654 Third Pillar
DNSDaniel Vigil   San Francisco, CA00:00.0 310724  658 Audi
DNSAdam Ward   Berkeley, CA00:00.0 297956  659 Berkeley Bicycle Club (BBC)
DNSSteven Woo   Los Altos, CA00:00.0 38840  661 Third Pillar
DNPMichael Charney (Cat4)   Millbrae, CA00:00.0 250113  616 Third Pillar
DNPDaniel Burns   San Mateo, CA00:00.0 292461  648 Third Pillar
DNPJonathan Racine   San Jose, CA00:00.0 200129  655 Great Basin Imaging | Kinetic

Men - Cat1/2/3

 Place Points NameCity, StateTime USAC #BibTeam
1172.21Steve Reaney   San Jose, CA00:00.0 133288  66 California Giant Berry Farms/S
2189.90Wes Holloway   Dublin Ca00:00.0 300531  65 Echelon Racing Development
3207.59William (Billy) Crane   Mountain View, CA00:00.0 138129  63 Webcor/Alto Velo
4225.28Rand Miller   San Francisco, CA00:00.0 182990  80 Webcor/Alto Velo
5242.97Brandon Trafton   Sacramento, CA00:00.0 240033  67 California Giant Berry Farms/S
6260.66Arthur Rand   Santa Cruz, CA00:00.0 170859  74 Marc Pro - Strava
7278.35Martin Acosta   East Palo Alto, CA00:00.0 291277  78 McGuire Cycling Team
8296.04Neema Assemi (1 - Cat3)   Fresno, CA00:00.0 306675  72 Sierra Pacific Racing
9313.73Nils Tikkanen   Santa Cruz, CA00:00.0 198331  76 Team Bicycle Trip/Symantec
10331.42Cyrus Behroozi   Menlo Park, CA00:00.0 40408  73 Form Fitness
DNSRobbie Franscioni (Cat2)   Salinas, CA00:00.0 298805  64 Bay Bikes/ Specialized
DNPDavid Levine   Alamo, CA00:00.0 145573  68 Taleo Racing
DNPMatthew Valencia   Los Altos, CA00:00.0 255576  69 Team Specialized Racing Junior
DNPStuart Press   Los Altos00:00.0 133656  70 Herbalife LaGrange
DNPEamon Franck   Pacific Grove, CA00:00.0 286608  71 California Giant Berry Farms/S
DNPJustin Leopold   Independence, MO00:00.0 299868  75 Celerity Cycling p/b Brooks Sy
DNPElliot Jaramillo   Burlingame, CA00:00.0 179930  77 McGuire Cycling Team
DNPLance Cameron   Pacific Grove, CA00:00.0 5900  79 Don Chapin Monterey Bay Racing

Men - Cat1/2/3 - Master - 35-99

 Place Points NameCity, StateTime USAC #BibTeam
1181.86Craig Nunes   San Luis Obispo, CA00:00.0 178453  366 ArtsCyclery.com/Wild Horse Win
2191.79Jonathan Eropkin   Fresno, CA00:00.0 197844  360 SAFEWAY/PureRed Creative/Bicyc
3201.72Derek Johnson   San Luis Obispo, CA00:00.0 273099  349 Platinum Performance Cycling T
4211.65Nathan Erickson   San Luis Obispo, CA00:00.0 63004  351 ArtsCyclery.com/Wild Horse Win
5221.58Dennis Hopp   San Jose, CA00:00.0 54895  362 SJBC
6231.51Matthew Carinio   San Luis Obispo, CA00:00.0 6109  358 ArtsCyclery.com/Wild Horse Win
7241.44Blake Reed   Grover Beach, CA00:00.0 29369  355 ArtsCyclery.com/Wild Horse Win
8251.37Keith DeFiebre   Prunedale, CA00:00.0 9046  359 Bay Bikes/Specialized
9261.30Greg McQuaid   San Francisco, CA00:00.0 249424  365 IronDataThirstyBearCycling.com
10271.23Chris Matthews   Redwood City, CA00:00.0 180294  364 Third Pillar
11281.16David Levine   Alamo, CA00:00.0 145573  356 Taleo Racing
12291.09David Avila   Emerald Hills, CA00:00.0 55625  353 One Team Racing
13301.02Michael Holt   Morgan Hill, CA00:00.0 75334  361 Bay101 Racing
14310.95Roger Martin   Danville, CA00:00.0 276924  363 Wells Fargo Racing Team
15320.88Brian Heneghan   San Jose, CA00:00.0 63508  350 Los Gatos
16330.81Christian Parker   San Mateo, CA00:00.0 213926  347 CoreTechs Cycling Team
17340.74Chris Ott   San Jose, CA00:00.0 26920  352 
18350.67Charles Pockell-Wilson   Martinez Ca00:00.0 52696  367 HDR Racing p/b Lombardi Sports
19360.60Jonathan Racine   San Jose, CA00:00.0 200129  368 Great Basin Imaging | Kinetic
DNPScott Hellam   Fresno, CA00:00.0 287510  346 Momentum Racing California
DNPJohn Wilde   San Francisco, CA00:00.0 225246  348 CoreTechs Cycling Team
DNPNick Hanni (Cat2)   San Francisco00:00.0 96693  354 Fusion Sport USA
DNPGeorge Smith (Cat3)   Menlo Park, CA00:00.0 168005  357 Webcor/Alto Velo

Men - Cat1/2/3 - Master - 45-99

 Place Points NameCity, StateTime USAC #BibTeam
1241.73Joel Robertson   San Leandro, CA00:00.0 220316  145 Webcor/Alto Velo
2248.40John Devere   Madera, CA00:00.0 297594  135 Sierra Pacific Racing
3255.07James Coats (1 - Cat2)   Campbell, CA00:00.0 7200  134 California Giant Berry Farms/S
4261.74Steve Heaton   Santa Cruz, CA00:00.0 15612  125 team bicycle trip
5268.41Tom Lyons   Fairfax, CA00:00.0 281054  127 IronDataThirstyBearCycling.com
6275.08Donald Langley   Morgan Hill, CA00:00.0 20327  126 Morgan Stanley Smith Barney/Sp
7281.75Steven Gile (2 - Cat2)   Salinas, CA00:00.0 98978  119 VOS Racing
8288.42Dean Knudsen (3 - Cat2)   Pacific Grove, CA00:00.0 74410  141 International Christian Cyclin
9295.09Scott Hellam   Fresno, CA00:00.0 287510  136 Momentum Racing California
10301.76Joe Fabris (1 - Cat3)   Los Gatos, CA00:00.0 189959  148 Fightin' Bobas
11308.43Allen Wulczynski (2 - Cat3)   San Jose, CA00:00.0 271874  131 SJBC
12315.10Stefano Schiaffino   Pleasanton, CA00:00.0 257173  132 Christian Cycling-Hammer Nutri
13321.77Carmelo Rios   San Jose, CA00:00.0 261379  147 Fightin' Bobas
14328.44Mark Vandenberghe   Lafayette, CA00:00.0 36393  139 Wells Fargo Racing Team
15335.11Alan Nielson (3 - Cat3)   Dublin, CA00:00.0 236183  137 Wells Fargo Racing Team
16341.78Gary Wall   Long Beach, CA00:00.0 188986  130 Pinnaclife/Radsport
17348.45Patrick McLaughlin   Lafayette, CA00:00.0 227027  140 Wells Fargo Racing Team
18355.12Eric Saltzman   Menlo Park, CA00:00.0 46157  128 SJBC
19361.79Geoffrey Drake (4 - Cat2)   Aptos, CA00:00.0 9986  142 Team Bicycle Trip/Symantec
20368.46Clark Foy   Los Gatos, CA00:00.0 255066  143 SJBC
21375.13Rob Maheu   Hollister, CA00:00.0 22166  144 SJBC
22381.80Ken Sato   Santa Cruz, CA00:00.0 82199  129 Team Bicycle Trip/Symantec
23388.47Joseph Foster   Alamo, CA00:00.0 286823  138 Wells Fargo Racing Team
24395.14Scott Riddle   San Jose, CA00:00.0 270475  133 SJBC
25401.81Jeffrey Purcell   Hughson, CA00:00.0 53815  117 Fun Sport Bikes Cycling Team
DNPGregory Pike   Salinas, CA00:00.0 158350  149 VOS Racing

Men - Cat1/2/3 - Master - 55-99

 Place Points NameCity, StateTime USAC #BibTeam
1338.38Brian Fessenden   Orinda, CA00:00.0 54692  592 Morgan Stanley Smith Barney/Sp
2357.18Scott Hennessy   Salinas, CA00:00.0 15827  599 VOS Racing
3375.98George Smith (1 - Cat3)   Menlo Park, CA00:00.0 168005  146 Webcor/Alto Velo
4394.78Larry Hampson   Marina, CA00:00.0 49323  594 VOS Racing
5413.58Dwight Goss   Santa Cruz, CA00:00.0 345718  593 

Men - Cat 5

 Place Points NameCity, StateTime USAC #BibTeam
1412.97giuseppe errico   Mountain View, CA00:00.0 353204  525 Form Fitness
2426.59Jacob Albrecht   Soquel, CA00:00.0 303589  516 
3440.21roger turner   Santa Cruz, CA00:00.0 309354  526 
4453.83franco campilongo   Menlo Park, CA00:00.0 261918  527 Form Fitness
5Steven HEMBREE   00:00.0  517 
6481.07Saul Flores   San Luis Obispo, CA00:00.0 321506  531 SLO Nexus Cycling Club
7494.69Don Chapin   Salinas, CA00:00.0 348760  521 
8508.31Richard Della Maggiore   Gilroy, CA00:00.0 178921  528 
9521.93Zach Bass   San Francisco, CA00:00.0 292133  519 Mission Cycling
10535.55Marty Timmons   Pacific Grove, CA00:00.0 356640  524 Naval Postgraduate School
11549.17Zachary Eaton   Pasadena, CA00:00.0 300624  530 
12562.79Chance Tiner   Santa Cruz, CA00:00.0 304640  518 
13Kevin HURT   00:00.0  523 
14Nick BOURGAULT   00:00.0  522 
DNPandrew boyle   Los Angeles, CA00:00.0 336170  520 SC
DNPJohn ACHEY   00:00.0  529 

Men - Cat 4

 Place Points NameCity, StateTime USAC #BibTeam
1355.10Jacob Gerhardt   Atascadero, CA00:00.0 305079  468 Dolce Vita Cycling
2363.78Mackenzie Kelly   Santa Cruz, CA00:00.0 286297  451 
3372.46Sean Perry   Altadena, CA00:00.0 270704  471 University of Southern Califor
4381.14Stephen Shafer   Springville, CA00:00.0 318242  474 Youngs Comm. Trans./Yokohl Ran
5389.82Curtis Hong   Dublin, CA00:00.0 305875  469 SJBC
6398.50Branton Curt   Saratoga, CA00:00.0 218287  466 Los Gatos Bicycle Club
7407.18Samuel Cerruti   Watsonville, CA00:00.0 233607  452 California Giant Berry Farms/S
8415.86Jeff Byrd   Salinas, CA00:00.0 268757  454 VOS Racing
9424.54Joshua Orzech   Santa Cruz, CA00:00.0 307459  460 
10433.22Jonathan Barbus   Los Altos, CA00:00.0 295596  464 Sterling Sports Group
11441.90Zach Eurich   Fresno, CA00:00.0 270781  467 VOS Racing
12450.58Peter Tousignant   Belmont, CA00:00.0 231855  453 Third Pillar
13459.26Freddie Liversidge   Los Gatos, CA00:00.0 335566  470 UC Santa Cruz
14467.94Jason Schmidt   Los Gatos, CA00:00.0 231913  473 ZTEAM
15476.62juan rosas   San Jose, CA00:00.0 332154  462 Bike Station Aptos
16485.30Scott Hollander   Clovis, CA00:00.0 308269  461 Rubber Soul/CSC Racing Team
17493.98Robbie Farrens   Stockton, CA00:00.0 289433  457 Rocket Sports Racing
18502.66cody greer   Sanger, CA00:00.0 309590  458 Sierra Pacific Racing
19511.34Joshua Taylor   Sanfrancisco, CA00:00.0 287071  459 Team Roaring Mouse
20520.02Jason Saltzman   Menlo Park, CA00:00.0 255580  472 SJBC
21528.70Kyle Zampaglione   San Jose, CA00:00.0 305974  475 SJBC
22537.38Ari Baquet   Los Angeles, CA00:00.0 305718  463 Big Orange Cycling
23546.06Rupert Cox   Emerald Hills, CA00:00.0 309471  465 SJBC
DNPJonathan Christensen   Clements, CA00:00.0 250315  455 DJs Excavation
DNPBenjamin Binder   Lodi, CA00:00.0 306714  456 Michael David Winery Cycling T
DNPChris Cain   Monterey, CA00:00.0 339008  476 

Women - Cat1/2/3

 Place Points NameCity, StateTime USAC #BibTeam
1283.27Courtney Dimpel (1 - Cat2)   Aptos, CA00:00.0 302140  584 BSA RACING
2307.55Lauraleen Fenech   San Francisco, CA00:00.0 224272  587 los gatos
3331.83Jennifer Van Muckey (2 - Cat2)   Campbell, CA00:00.0 207585  591 Sycomp Racing
4356.11Lesley Jensen   Benicia, CA00:00.0 17778  589 Team One Racing
5380.39Kim Wik   Fremont, CA00:00.0 254251  592 Sycomp Racing
6404.67Anna Davenport (3 - Cat2)   San Anselmo, CA00:00.0 198809  586 Los Gatos
7428.95Kim Ladd   Palo Alto, CA00:00.0 250460  585 Sycomp Racing
DNSApril Hamlin   El Dorado Hills, CA00:00.0 266244  588 Los Gatos
DNSJennifer Kalich   Aromas00:00.0 297754  590 Team Donate Life

Women - Cat 4

 Place Points NameCity, StateTime USAC #BibTeam
1416.60Anne Findlay   Sonora, CA00:00.0 238310  424 Team Type 1
2503.30Yvonne Walbroehl   Mountain View, CA00:00.0 219164  428 Peninsula Velo/Pomodoro
3Mayre ACHEY   00:00.0  427 
DNSClaire Morgan   Gold River, CA00:00.0 335402  425 
DNSDanielle Spires   Oakland, CA00:00.0 303311  426 Velo Girls

Women - Master - 35-99

 Place Points NameCity, StateTime USAC #BibTeam
1348.51Michele Heaton   Santa Cruz, CA00:00.0 273618  930 bike trip symantec
2374.93Amy Russo   Santa Cruz, CA00:00.0 134488  927 Red Racing
3401.35Jennifer Jordan   Brisbane , CA00:00.0 250459  931 Sycomp Racing/Team Affinity
4427.77Joanne Thompson (1 - Cat3)   Aptos, CA00:00.0 47791  933 Bike Station Aptos
5454.19Joan Case   Pleasant Hill, CA00:00.0 242557  929 Taleo Racing
6480.61Aimee Baker (1 - Cat2)   Menlo Park, CA00:00.0 138072  928 Sycomp
7507.03Monica Holt   Saratoga, CA00:00.0 268263  932 Sycomp Racing

Report missing or incorrect license numbers

Volkswagen
USACDFSpyShimanoSierra NevadaBonk BreakerCUORE
UCI USA Cycling is the official governing body for all disciplines of competitive cycling in the United States. The 501c3, membership-based organization aims both to achieve sustained success in international cycling competition and to grow competitive cycling in America while delivering an exceptional customer experience.
View Children's Online Privacy Protection Policy
US Olympic Committee